www.pogodaiklimat.ru

Погода и климат >> Архив погоды >> Иран >> Semnan


ПОГОДА в Semnan

  • Прогноз погоды в Semnan
  • Монитор погоды в Semnan
  • Климат города

АРХИВ ПОГОДЫ в Semnan

Время (UTC), дата Ветер
(напр.,м/с)
 
Видим.   Явления Облачность Т
(С)
Тd
(С)
f
(%)
Тe
(С)
Тes
(С)
Комфортность P
(гПа)
Po
(гПа)
Тmin
(С)
Tmax
(С)
R
(мм)
R24
(мм)
S
(см)
03 6.11 СЗ 1 15 км 6/0
[Ac und]
+9.8 -4.9 35 +10 +10 1017.2 890.2 +6.6
06 6.11 штиль 0 12 км 9/4 1050 м
[Sc Ac As]
+12.4 -4.9 30 +12 +14 1019.0 891.7
09 6.11 ЮЗ 2 12 км 9/4 1050 м
[Sc Ac As]
+14.2 -6.4 23 +14 +16 1017.7 890.7
12 6.11 штиль 0 12 км 9/4 1050 м
[Sc Ac As]
+12.8 -2.6 34 +13 +13 1018.0 890.5
15 6.11 штиль 0 12 км 9/4 1050 м
[Sc Ac As]
+11.6 +2.8 55 +11 +11 1017.1 890.1 +14.4
18 6.11 штиль 0 12 км 9/4 1050 м
[Sc Ac und]
+12.0 +3.0 54 +12 +12 1017.3 890.9
21 6.11 штиль 0 12 км 9/4 1050 м
[Sc Ac As]
+11.4 +1.6 51 +11 +11 1017.4 891.2
00 7.11 ЮЗ 1 12 км 9/4 1050 м
[Sc Ac As]
+10.5 +2.9 59 +10 +10 1018.6 891.8
03 7.11 штиль 0 12 км в посл. час дождь 9/4 1050 м
[Sc Ac As]
+10.0 +4.5 69 +10 +10 1019.1 892.0 +9.2
06 7.11 ЮЗ 2 12 км {ливн. осадки, дождь} 9/5 900 м
[Cb calv Ac As]
+11.8 +1.6 50 +11 +12 1021.2 894.1 0.1
09 7.11 Ю 3 15 км 6/5 900 м
[Cu Sc Cs]
+14.2 +2.8 46 +13 +17 1021.3 894.6
12 7.11 Ю 4 12 км 9/5 900 м
[Cb calv Ci sp]
+15.4 +5.0 50 +15 +15 1020.6 894.2
15 7.11 С 2 12 км 10/5 1050 м
[Cb calv Ac As]
+12.8 +3.6 54 +12 +12 1021.2 894.0 +15.6
18 7.11 штиль 0 12 км 8/4 1200 м
[Sc Ac As]
+11.4 +3.8 60 +11 +11 1022.2 895.0
21 7.11 СЗ 2 12 км 6/4 1200 м
[Sc Ac As]
+10.6 +3.8 63 +9 +9 1022.1 895.2
00 8.11 штиль 0 12 км 6/4 1200 м
[Sc Ac und]
+8.4 +3.1 69 +8 +8 1022.1 895.0
03 8.11 штиль 0 12 км 4/1 1200 м
[Sc Ac lent Ci fib]
+7.6 +3.2 74 +7 +7 1022.9 895.0 +7.4
06 8.11 Ю 1 12 км 8/1 900 м
[Sc diur, vesp Ac und]
+13.0 +4.3 55 +13 +15 1022.4 895.4
09 8.11 ЮВ 1 15 км 4/1 900 м
[Cu Sc Ci]
+15.4 +4.5 48 +16 +24 1019.9 893.6
12 8.11 Ю 2 15 км 3/1 900 м
[Sc Cs]
+16.0 +3.8 44 +16 +18 1019.2 892.6
15 8.11 ЮЗ 1 15 км ясно +12.8 +3.0 51 +13 +13 1020.0 892.4 +16.4
18 8.11 С 2 15 км ясно +10.6 +2.2 56 +10 +10 1019.8 892.9
21 8.11 С 1 15 км ясно +9.8 +2.8 62 +10 +10 1018.9 892.3
00 9.11 С 1 15 км ясно +9.0 +2.8 65 +9 +9 1018.4 892.0
03 9.11 штиль 0 15 км 6/0
[Ci sp]
+8.4 +2.6 67 +8 +8 1019.3 892.0 +8.0
06 9.11 штиль 0 15 км 6/0
[Ac und]
+13.4 +3.3 50 +13 +17 1019.0 892.3
09 9.11 Ю 1 15 км 5/3 1000 м
[Cu Sc Ac cuf Cs]
+16.6 +3.6 42 +18 +23 1017.8 891.8
12 9.11 Ю 1 15 км 4/1 900 м
[Cu Sc Cs]
+16.4 +3.3 42 +17 +19 1016.8 890.7
15 9.11 штиль 0 15 км 3/0
[Ac und]
+13.4 +3.8 52 +13 +13 1018.0 891.0 +17.6
18 9.11 С 1 15 км ясно +11.0 +2.8 57 +11 +11 1018.1 891.6
21 9.11 С 1 15 км ясно +11.6 +3.0 56 +12 +12 891.5
00 10.11 С 1 15 км 3/3 900 м
[Sc]
+11.0 +2.8 57 +11 +11 1017.3 891.5
06 10.11 штиль 0 15 км 6/0
[Ac und Ci fib]
+13.2 +3.6 52 +13 +17 1019.0 892.4
09 10.11 З 1 15 км 5/3 1050 м
[Cu med, cong Ci sp]
+18.2 +3.2 37 +19 +25 1016.8 891.6
12 10.11 ЮЗ 2 15 км 6/3 1050 м
[Sc diur, vesp Ac As]
+17.6 +3.4 39 +18 +19 1016.5 891.0
15 10.11 штиль 0 15 км 5/1 1050 м
[Sc diur, vesp Ci sp]
+15.2 +5.8 53 +15 +15 1018.0 891.8 +19.0
18 10.11 штиль 0 12 км 3/3 1200 м
[Sc]
+12.2 +3.3 54 +12 +12 1018.6 892.3
21 10.11 штиль 0 12 км 3/3 1050 м
[Sc]
+11.0 +3.3 59 +11 +11 1017.6 892.2
00 11.11 штиль 0 12 км 3/3 1050 м
[Sc]
+11.5 +3.7 59 +11 +11 1017.9 892.4
03 11.11 штиль 0 12 км 5/3 1050 м
[Sc Ac und]
+11.5 +3.1 56 +11 +11 1018.7 892.6 +9.8
06 11.11 штиль 0 10 км 8/6 1200 м
[Sc Ci fib]
+13.8 +2.8 47 +14 +16 1020.0 893.6
09 11.11 ЮЗ 2 12 км 9/8 1050 м
[Cb calv Ci sp]
+16.8 +3.8 42 +17 +18 1018.7 892.9
12 11.11 СВ 2 12 км 6/4 1050 м
[Sc Ac As]
+18.2 +3.2 37 +19 +20 1016.8 891.5
15 11.11 С 1 12 км 4/0
[Ci sp]
+14.4 +4.7 52 +15 +15 1018.5 892.3 +18.4
18 11.11 штиль 0 12 км 4/0
[Ci sp]
+12.2 +3.3 54 +12 +12 1019.1 892.8
21 11.11 СЗ 1 12 км 3/0
[Ci fib]
+12.8 +4.1 55 +13 +13 1017.9 892.5
00 12.11 СЗ 2 12 км 6/3 1050 м
[Sc Ac As]
+12.8 +4.1 55 +12 +12 1017.3 892.3
03 12.11 штиль 0 9000 м слабый дождь 10/4 1050 м
[Sc Ac As]
+11.6 +6.4 70 +11 +11 1019.2 893.0 +11.2
06 12.11 С 1 4000 м слабый дождь 10/4 900 м
[Sc Ac As]
+12.4 +7.8 74 +12 +13 1020.2 893.7 1
09 12.11 Ю 3 9000 м мгла {дождь} 10/4 700 м
[Sc Ac As]
+13.6 +7.4 66 +13 +14 1019.8 893.6
12 12.11 ЮВ 1 12 км 9/3 900 м
[Sc Ac As]
+13.6 +7.9 68 +14 +14 1019.1 893.1
15 12.11 Ю 1 10 км 6/3 900 м
[Sc Ac As]
+11.6 +8.1 79 +11 +11 1020.3 893.5 +13.6
18 12.11 штиль 0 12 км 6/6 1200 м
[Sc]
+10.0 +7.6 85 +9 +9 1020.9 893.8
21 12.11 штиль 0 12 км 6/6 1200 м
[Sc]
+10.0 +6.4 78 +9 +9 1019.8 893.1
00 13.11 штиль 0 10 км 6/6 1200 м
[Sc]
+9.0 +6.6 85 +8 +8 1019.6 892.7

 

Местоположение метеостанции Semnan (Иран): широта 35.55 долгота 53.38 высота над уровнем моря 1131 м.

В архиве по умолчанию представлена погода в Semnan за последнюю неделю. Архивные данные за месяц целиком и за предыдущие месяцы, начиная с января 2011 года, Вы можете получить, выбрав интересующий диапазон дат из раскрывающегося списка и нажав кнопку "Ввод!".


*Определитесь, кто Вы:
робот инопланетянин человек

Внимание! Время в таблицах - всемирное. Для получения местного времени необходимо прибавить поправку, которая в Semnan равна 3.5 ч.

Смотрите также архив погоды в соседних городах и на ближайших метеорологических станциях:

Погода в Eskandar Kola (Иран) (112 км)
Погода в Babolsar (Иран) (146 км)
Погода в Gorgan (Иран) (165 км)
Погода в Shahrud (Иран) (171 км)
Погода в Tehran (Иран) (187 км)
Погода в Noshahr (Иран) (209 км)
Погода в Эсенгулы (Балканский велаят, Туркменистан) (220 км)
Погода в Kashan (Иран) (248 км)
Погода в Khor (Иран) (251 км)
Погода в Гызылетреке (Балканский велаят, Туркменистан) (262 км)

Пояснения к столбцам:

Ветер - указаны скорость ветра в м/с - средняя за 10 мин, порывы в срок и между сроками (в фигурных скобках) и направление, откуда дует ветер: С - северный, СВ - северо-восточный, В - восточный, ЮВ - юго-восточный, Ю - южный, ЮЗ - юго-западный, З - западный, СЗ - северо-западный.
Видимость - горизонтальная дальность видимости в метрах или километрах. При видимости от 1 до 10 км при отсутствии осадков обычно наблюдается дымка, при ухудшении видимости до 1 км и менее - туман. В сухую погоду видимость может ухудшаться дымом, пылью или мглою.
Явления - указаны атмосферные явления, наблюдавшиеся в срок или в последний час перед сроком; фигурными скобками обозначены явления, наблюдавшиеся между сроками (за 1-3 часа до срока); квадратными скобками обозначены град или гололедные отложения с указанием их диаметра в мм.
Облачность - указаны через наклонную черту общая и нижняя облачность в баллах и высота нижней границы облаков в метрах; квадратными скобками обозначены формы облаков: Ci - перистые, Cs - перисто-слоистые, Cc - перисто-кучевые, Ac - высококучевые, As - высокослоистые, Sc - слоисто-кучевые, Ns - слоисто-дождевые, Cu - кучевые, Cb - кучево-дождевые. Подробнее классификацию облаков см. в Атласе облаков (PDF).
T - Температура воздуха - температура, измеренная на высоте 2 м над землей.
Td - Температура точки росы - температура, при понижении до которой содержащийся в воздухе водяной пар достигнет насыщения.
f - Относительная влажность воздуха - влажноcть воздуха, измеренная на высоте 2 м над землей.
Te - Эффективная температура - температура, которую ощущает одетый по сезону человек в тени. Характеристика душности погоды. При расчете учитывается влияние влажности воздуха и скорости ветра на теплоощущения человека.
Tes - Эффективная температура на солнце - температура, которую ощущает человек, с поправкой на солнечный нагрев. Характеристика знойности погоды. Зависит от высоты солнца над горизонтом, облачности и скорости ветра. Ночью, в пасмурную погоду, а также при ветре 12 м/с и более поправка равна нулю.
P - Атмосферное давление - приведенное к уровню моря атмосферное давление.
Po - Атмосферное давление - измеренное на уровне метеостанции атмосферное давление.
Tmin - Минимальная температура - минимум температуры воздуха на высоте 2 м над землей.
Tmax - Максимальная температура - максимум температуры воздуха на высоте 2 м над землей.
R - Количество осадков - Количество выпавших осадков за период времени, мм. При наведении курсора мыши на число - период времени, за который выпало указанное количество осадков.
R24 - Количество осадков - Количество выпавших осадков за 24 часа, мм.
S - Снежный покров - Высота снежного покрова, см. При наведении курсора мыши на число - состояние снежного покрова и степень покрытия местности в баллах.